PBO Station Position Time Series. Reference Frame : NAM14
Format Version,1.1.1
4-character ID,P074
Station name,BigReilleyNV2006
Begin Date, 2006-10-01
End Date, 2023-06-26
Release Date, 2023-06-27
Reference position, 39.5464272415 North Latitude, -116.0495978415 East Longitude, 1947.68108 meters elevation,
Date, North (mm), East (mm), Vertical (mm), North Std. Deviation (mm), East Std. Deviation (mm),              Vertical Std. Deviation (mm), Quality,
2006-10-01,0.00, 0.00, 0.00, 2.09, 1.67, 7.51, repro,
2006-10-02,-0.46, -2.31, -2.71, 2.13, 1.75, 7.57, repro,
2006-10-03,2.25, -0.01, -10.51, 2.11, 1.71, 7.51, repro,
2006-10-04,-2.27, -4.25, -2.30, 2.09, 1.68, 7.53, repro,
2006-10-05,-1.24, -2.54, -0.03, 2.10, 1.65, 7.53, repro,
2006-10-06,-1.34, -1.54, -1.00, 2.08, 1.64, 7.44, repro,
2006-10-07,0.72, -0.62, -5.48, 2.20, 1.81, 8.12, repro,
2006-10-08,-0.04, -0.55, -8.36, 2.16, 1.72, 7.90, repro,
2006-10-09,0.13, -0.57, -5.69, 2.17, 1.74, 7.91, repro,
2006-10-10,-0.14, -0.41, -10.66, 2.09, 1.68, 7.56, repro,
2006-10-11,-0.29, -0.21, 0.58, 2.13, 1.73, 7.79, repro,
2006-10-12,-0.59, -0.39, 1.47, 2.10, 1.67, 7.45, repro,
2006-10-13,1.03, -0.53, 3.78, 2.05, 1.65, 7.33, repro,
2006-10-14,1.56, -1.21, 2.69, 2.04, 1.68, 7.46, repro,
2006-10-15,-0.31, -0.93, 6.18, 2.05, 1.67, 7.45, repro,
2006-10-16,-1.09, 1.77, 4.54, 2.04, 1.65, 7.36, repro,
2006-10-17,-1.35, -1.37, 7.74, 2.08, 1.71, 7.69, repro,
2006-10-18,0.60, -1.16, -2.68, 2.13, 1.74, 7.84, repro,
2006-10-19,1.27, -0.96, 1.13, 2.23, 1.75, 7.97, repro,
2006-10-20,0.82, -0.62, 1.85, 2.38, 2.01, 9.66, repro,
2006-10-21,0.20, -1.56, -2.18, 2.18, 1.75, 8.01, repro,
2006-10-22,0.01, -0.48, -3.89, 2.07, 1.72, 7.61, repro,
2006-10-23,-0.14, -0.87, -6.54, 2.21, 1.80, 8.09, repro,
2006-10-24,0.15, -0.15, -2.68, 2.10, 1.74, 7.65, repro,
2006-10-25,0.86, -2.45, -0.90, 2.21, 1.83, 8.01, repro,
2006-10-26,-0.04, -2.39, -6.26, 2.06, 1.72, 7.53, repro,
2006-10-27,0.32, 0.01, -8.72, 2.08, 1.75, 7.66, repro,
2006-10-28,-0.86, -0.74, -4.30, 2.19, 1.76, 7.99, repro,
2006-10-29,0.03, -0.61, -0.29, 2.06, 1.71, 7.55, repro,
2006-10-30,-0.21, -0.87, 3.68, 2.03, 1.68, 7.39, repro,
2006-10-31,-0.43, -0.93, 0.02, 2.05, 1.70, 7.48, repro,
2006-11-01,0.93, -0.42, -3.71, 2.19, 1.80, 8.09, repro,
2006-11-02,0.18, -0.58, -5.09, 2.06, 1.72, 7.58, repro,
2006-11-03,0.36, 0.27, -2.88, 2.07, 1.71, 7.57, repro,
2006-11-04,0.66, -0.66, -5.29, 2.11, 1.72, 7.63, repro,
2006-11-05,-0.57, -0.62, -6.66, 2.14, 1.74, 7.71, repro,
2006-11-06,-0.48, -0.97, -6.68, 1.99, 1.63, 7.22, repro,
2006-11-07,0.34, 0.20, -4.77, 2.16, 1.78, 7.86, repro,
2006-11-08,-0.81, -1.40, 3.33, 2.14, 1.73, 7.68, repro,
2006-11-09,0.39, -4.70, 1.94, 2.18, 1.79, 7.96, repro,
2006-11-10,0.08, -0.90, -5.73, 2.08, 1.64, 7.40, repro,
2006-11-11,-0.53, -1.14, -7.57, 2.14, 1.73, 7.74, repro,
2006-11-12,-1.14, -0.43, -3.61, 2.15, 1.76, 7.80, repro,
2006-11-13,-0.44, -0.29, -4.66, 2.13, 1.70, 7.58, repro,
2006-11-14,0.51, -0.79, -2.92, 2.04, 1.64, 7.36, repro,
2006-11-15,-0.07, -1.09, -5.97, 1.99, 1.61, 7.23, repro,
2006-11-16,0.65, -0.69, -3.45, 2.00, 1.61, 7.20, repro,
2006-11-17,0.01, -0.74, -6.91, 1.99, 1.62, 7.18, repro,
2006-11-18,-0.09, 0.02, -5.92, 2.00, 1.61, 7.17, repro,
2006-11-19,0.07, -0.01, -6.91, 2.01, 1.62, 7.25, repro,
2006-11-20,-0.31, 0.45, -5.76, 2.00, 1.62, 7.21, repro,
2006-11-21,-2.54, -2.09, -6.83, 1.99, 1.61, 7.12, repro,
2006-11-22,-3.13, -1.99, -9.27, 1.99, 1.62, 7.17, repro,
2006-11-23,-1.86, -2.17, -13.55, 2.06, 1.71, 7.58, repro,
2006-11-24,0.64, -0.68, -4.78, 2.10, 1.69, 7.57, repro,
2006-11-25,-0.15, -0.41, -0.70, 2.03, 1.63, 7.26, repro,
2006-11-26,-0.29, -0.29, -4.40, 2.03, 1.63, 7.25, repro,
2006-11-27,-2.25, -3.05, -8.98, 2.02, 1.63, 7.22, repro,
2006-11-28,-1.07, -0.14, -1.02, 1.98, 1.63, 7.16, repro,
2006-11-29,-0.10, -1.33, -6.39, 2.00, 1.62, 7.21, repro,
2006-11-30,0.33, -0.32, -11.32, 2.01, 1.63, 7.24, repro,
2006-12-01,0.35, -1.40, -10.17, 1.99, 1.63, 7.20, repro,
2006-12-02,-0.26, -1.00, -13.24, 1.99, 1.62, 7.13, repro,
2006-12-03,-0.42, -0.48, -14.65, 1.99, 1.63, 7.15, repro,
2006-12-04,0.25, -0.39, -15.11, 2.05, 1.65, 7.35, repro,
2006-12-05,-0.11, -0.24, -8.24, 2.08, 1.75, 7.57, repro,
2006-12-06,0.65, -0.67, -9.12, 2.08, 1.77, 7.62, repro,
2006-12-07,0.03, -0.12, -11.66, 2.03, 1.68, 7.33, repro,
2006-12-08,-0.64, -0.66, -8.39, 2.02, 1.68, 7.30, repro,
2006-12-09,-1.01, -1.07, -9.72, 2.18, 1.81, 7.90, repro,
2006-12-10,-1.62, -2.57, -7.30, 2.07, 1.70, 7.44, repro,
2006-12-11,0.64, -1.56, -6.31, 2.00, 1.63, 7.20, repro,
2006-12-12,0.19, -1.20, -7.59, 2.12, 1.73, 7.71, repro,
2006-12-13,0.28, -1.65, -7.83, 2.02, 1.69, 7.36, repro,
2006-12-14,-0.54, -1.67, -2.32, 1.98, 1.65, 7.25, repro,
2006-12-15,-0.41, -0.10, -3.13, 2.08, 1.73, 7.63, repro,
2006-12-16,-0.24, -0.48, -0.14, 2.10, 1.77, 7.56, repro,
2006-12-17,1.48, -1.09, -11.78, 2.22, 1.87, 8.30, repro,
2006-12-18,0.41, -1.11, -11.43, 2.33, 1.93, 8.76, repro,
2006-12-19,0.17, -0.77, -10.87, 2.10, 1.78, 7.78, repro,
2006-12-20,-0.22, -0.90, -6.05, 2.20, 1.84, 8.04, repro,
2006-12-21,-0.82, -0.54, -8.08, 2.06, 1.80, 7.60, repro,
2006-12-22,-0.02, -0.09, -6.52, 2.29, 1.98, 8.42, repro,
2006-12-23,0.86, -0.86, -12.53, 2.11, 1.80, 7.87, repro,
2006-12-24,0.13, -0.72, -8.57, 1.98, 1.64, 7.19, repro,
2006-12-25,-0.46, -0.20, -12.37, 2.08, 1.76, 7.59, repro,
2006-12-26,0.17, -0.98, -10.62, 2.15, 1.76, 7.84, repro,
2006-12-27,-0.35, -2.86, -4.79, 2.13, 1.77, 7.92, repro,
2006-12-28,0.66, -1.01, -1.55, 2.50, 2.18, 9.62, repro,
2006-12-29,0.37, -1.65, -15.79, 2.22, 1.86, 8.32, repro,
2006-12-30,0.70, -1.23, -10.48, 2.08, 1.77, 7.71, repro,
2006-12-31,0.60, -1.07, -10.69, 2.23, 1.88, 8.44, repro,
2007-01-01,-0.23, -1.25, -9.08, 2.28, 1.92, 8.47, repro,
2007-01-02,0.19, -0.87, -10.67, 2.33, 2.00, 8.78, repro,
2007-01-03,0.87, -0.02, -1.88, 2.07, 1.78, 7.69, repro,
2007-01-04,-1.01, -0.75, -2.23, 1.99, 1.70, 7.34, repro,
2007-01-05,2.79, 0.36, -1.61, 2.05, 1.77, 7.54, repro,
2007-01-06,-0.00, -1.57, -13.32, 2.06, 1.76, 7.47, repro,
2007-01-07,1.33, -1.57, -17.46, 2.06, 1.69, 7.41, repro,
2007-01-08,0.68, -1.08, -14.83, 2.07, 1.71, 7.49, repro,
2007-01-09,0.15, -0.59, -14.73, 2.03, 1.65, 7.19, repro,
2007-01-10,0.41, -0.77, -9.27, 2.06, 1.71, 7.36, repro,
2007-01-11,0.18, 0.70, -9.82, 2.07, 1.66, 7.32, repro,
2007-01-12,1.15, -1.23, -10.45, 2.00, 1.61, 7.14, repro,
2007-01-13,0.94, -0.74, -13.93, 2.01, 1.65, 7.20, repro,
2007-01-14,0.53, -0.54, -11.64, 1.96, 1.60, 7.01, repro,
2007-01-15,0.51, -0.97, -20.91, 1.96, 1.60, 7.00, repro,
2007-01-16,0.65, -0.49, -16.43, 2.02, 1.61, 7.08, repro,
2007-01-17,0.20, -1.30, -14.18, 2.00, 1.65, 7.16, repro,
2007-01-18,1.04, -0.76, -20.04, 2.03, 1.69, 7.30, repro,
2007-01-19,1.11, -0.55, -16.66, 2.02, 1.62, 7.25, repro,
2007-01-20,0.68, -0.29, -12.14, 2.08, 1.66, 7.41, repro,
2007-01-21,1.57, 0.13, -15.09, 1.96, 1.60, 6.99, repro,
2007-01-22,0.83, -0.62, -14.39, 1.96, 1.61, 7.01, repro,
2007-01-23,1.49, -0.49, -17.93, 1.97, 1.60, 7.01, repro,
2007-01-24,0.35, -0.23, -17.07, 1.96, 1.60, 7.00, repro,
2007-01-25,1.35, -0.01, -19.83, 2.08, 1.68, 7.29, repro,
2007-01-26,0.49, -0.89, -12.01, 1.95, 1.59, 6.95, repro,
2007-01-27,1.03, -0.17, -12.57, 1.95, 1.59, 6.93, repro,
2007-01-28,0.30, -0.72, -13.34, 1.97, 1.59, 6.97, repro,
2007-01-29,0.29, 0.10, -12.61, 1.95, 1.58, 6.88, repro,
2007-01-30,0.87, -0.02, -7.90, 1.96, 1.59, 6.96, repro,
2007-01-31,0.49, -1.18, -6.19, 1.95, 1.59, 6.91, repro,
2007-02-01,0.58, 0.47, -5.72, 1.99, 1.66, 7.22, repro,
2007-02-02,0.29, -0.23, -8.98, 2.01, 1.61, 7.14, repro,
2007-02-03,0.65, -0.37, -12.00, 2.01, 1.60, 7.10, repro,
2007-02-04,-0.30, 0.17, -13.66, 1.96, 1.59, 6.95, repro,
2007-02-05,0.48, -0.10, -17.50, 1.95, 1.58, 6.89, repro,
2007-02-06,0.93, 0.66, -15.07, 1.99, 1.59, 6.96, repro,
2007-02-07,0.70, 0.82, -8.45, 1.96, 1.60, 6.98, repro,
2007-02-08,-0.33, -0.98, -13.08, 2.05, 1.67, 7.34, repro,
2007-02-09,-0.41, 0.94, -10.16, 1.99, 1.64, 7.15, repro,
2007-02-10,-0.55, -0.96, -12.37, 1.96, 1.59, 6.94, repro,
2007-02-11,-0.60, -1.64, -12.91, 1.95, 1.59, 6.91, repro,
2007-02-12,0.13, -0.59, -15.57, 1.96, 1.58, 6.91, repro,
2007-02-13,1.32, -0.67, -14.51, 1.97, 1.59, 6.98, repro,
2007-02-14,-0.48, -0.74, -14.32, 1.96, 1.59, 6.98, repro,
2007-02-15,0.53, -1.25, -16.87, 1.96, 1.59, 6.96, repro,
2007-02-16,0.39, 0.93, -15.70, 1.95, 1.58, 6.90, repro,
2007-02-17,-0.51, -0.21, -18.36, 1.99, 1.63, 7.02, repro,
2007-02-18,-1.60, -0.62, -9.21, 1.95, 1.58, 6.96, repro,
2007-02-19,-0.96, -1.09, -1.00, 1.98, 1.60, 7.06, repro,
2007-02-20,-0.50, -0.57, -1.42, 1.97, 1.58, 7.00, repro,
2007-02-21,-0.60, -0.00, -5.88, 1.96, 1.58, 6.92, repro,
2007-02-22,-0.86, -1.12, -8.38, 1.97, 1.58, 6.94, repro,
2007-02-23,0.80, 0.16, -6.73, 2.23, 1.75, 7.67, repro,
2007-02-24,-0.34, -1.67, -7.55, 1.97, 1.60, 7.02, repro,
2007-02-25,-0.86, -0.98, -8.71, 1.97, 1.58, 6.99, repro,
2007-02-26,-0.43, 0.13, -5.69, 1.98, 1.58, 7.01, repro,
2007-02-27,-0.05, 0.01, -1.06, 1.98, 1.59, 6.99, repro,
2007-02-28,0.01, -0.47, 0.73, 1.99, 1.59, 7.03, repro,
2007-03-01,0.10, -1.70, -10.95, 2.04, 1.67, 7.35, repro,
2007-03-02,0.69, -1.05, -14.53, 2.00, 1.65, 7.20, repro,
2007-03-03,0.22, -0.20, -16.56, 2.02, 1.63, 7.19, repro,
2007-03-04,0.19, -0.26, -16.74, 2.05, 1.65, 7.26, repro,
2007-03-05,0.11, -0.19, -12.65, 2.02, 1.63, 7.19, repro,
2007-03-06,-0.45, -0.79, -7.51, 2.05, 1.66, 7.30, repro,
2007-03-07,0.13, -0.98, -8.91, 1.98, 1.61, 7.08, repro,
2007-03-08,-0.20, -0.66, -5.14, 2.00, 1.62, 7.11, repro,
2007-03-09,0.25, -0.35, -9.10, 2.02, 1.61, 7.13, repro,
2007-03-10,0.46, -1.49, -9.58, 2.11, 1.71, 7.58, repro,
2007-03-11,-0.32, -0.01, -11.91, 2.02, 1.62, 7.20, repro,
2007-03-12,-0.09, -0.69, -12.60, 2.02, 1.65, 7.34, repro,
2007-03-13,-0.60, -1.48, -5.25, 1.97, 1.58, 7.01, repro,
2007-03-14,0.67, -2.69, -3.92, 1.98, 1.58, 6.99, repro,
2007-03-15,-0.63, -0.67, -8.65, 2.01, 1.61, 7.08, repro,
2007-03-16,0.39, -1.20, -12.37, 2.01, 1.61, 7.16, repro,
2007-03-17,0.22, -0.44, -3.86, 1.96, 1.56, 6.92, repro,
2007-03-18,-0.61, -1.14, -4.66, 1.96, 1.58, 6.96, repro,
2007-03-19,-0.37, -0.15, -2.37, 1.98, 1.58, 7.03, repro,
2007-03-20,0.00, -0.75, -0.70, 2.05, 1.60, 7.10, repro,
2007-03-21,-1.05, -2.28, -0.71, 2.10, 1.65, 7.36, repro,
2007-03-22,-0.94, -2.18, -4.37, 2.00, 1.61, 7.19, repro,
2007-03-23,0.85, -1.94, -5.07, 2.00, 1.60, 7.13, repro,
2007-03-24,-0.26, -1.26, -3.64, 2.01, 1.62, 7.23, repro,
2007-03-25,-1.03, -1.50, -1.70, 1.97, 1.56, 6.93, repro,
2007-03-26,-1.37, -2.24, -2.66, 1.97, 1.58, 6.96, repro,
2007-03-27,-0.71, -1.21, -1.56, 2.04, 1.57, 7.07, repro,
2007-03-28,-0.14, -1.27, -4.15, 2.14, 1.63, 7.48, repro,
2007-03-29,0.40, 0.12, -6.66, 2.02, 1.60, 7.21, repro,
2007-03-30,0.11, -0.40, -8.90, 1.99, 1.57, 7.00, repro,
2007-03-31,0.02, -1.66, -3.79, 1.97, 1.57, 6.93, repro,
2007-04-01,0.13, -2.21, -3.29, 1.98, 1.57, 6.95, repro,
2007-04-02,-0.49, -0.24, -9.15, 2.00, 1.58, 7.05, repro,
2007-04-03,0.45, -0.82, -6.63, 2.05, 1.65, 7.41, repro,
2007-04-04,-0.02, -1.02, -11.06, 2.03, 1.61, 7.21, repro,
2007-04-05,-0.13, -1.24, -7.40, 2.07, 1.65, 7.34, repro,
2007-04-06,-0.07, -0.78, -7.64, 2.08, 1.67, 7.37, repro,
2007-04-07,-0.15, -0.95, -2.97, 2.02, 1.61, 7.10, repro,
2007-04-08,-0.16, -0.99, -2.22, 2.00, 1.56, 6.98, repro,
2007-04-09,-0.09, -1.40, -2.75, 2.00, 1.60, 7.09, repro,
2007-04-10,-0.95, -0.53, -4.51, 2.03, 1.63, 7.16, repro,
2007-04-11,-0.42, -1.03, -0.92, 1.97, 1.55, 6.90, repro,
2007-04-12,-0.37, -0.58, 4.17, 1.97, 1.57, 6.94, repro,
2007-04-13,-0.35, -0.19, -7.45, 2.01, 1.56, 6.98, repro,
2007-04-14,-0.67, -0.85, -2.35, 2.02, 1.59, 7.07, repro,
2007-04-15,-0.78, -2.54, -4.33, 2.00, 1.58, 7.07, repro,
2007-04-16,-0.59, -0.49, -6.13, 2.00, 1.57, 6.99, repro,
2007-04-17,-0.27, 0.33, -2.05, 1.98, 1.58, 6.99, repro,
2007-04-18,-1.62, -1.77, -1.32, 1.98, 1.57, 6.99, repro,
2007-04-19,0.35, -0.94, -3.28, 1.99, 1.57, 7.01, repro,
2007-04-20,-0.29, -0.58, -4.75, 2.02, 1.59, 7.12, repro,
2007-04-21,-0.62, -0.07, -2.72, 2.01, 1.58, 7.09, repro,
2007-04-22,-1.05, -1.11, -4.96, 1.99, 1.57, 7.03, repro,
2007-04-23,-0.32, -0.17, -3.34, 2.01, 1.60, 7.09, repro,
2007-04-24,-0.88, -0.50, -7.26, 2.01, 1.59, 7.03, repro,
2007-04-25,-0.10, -1.11, -7.85, 2.03, 1.60, 7.10, repro,
2007-04-26,0.31, -1.41, -6.83, 2.02, 1.58, 7.09, repro,
2007-04-27,-0.55, -0.95, -8.21, 2.01, 1.57, 7.08, repro,
2007-04-28,-0.43, 0.02, -6.62, 1.98, 1.56, 6.96, repro,
2007-04-29,-1.77, 0.04, -9.55, 1.98, 1.55, 6.92, repro,
2007-04-30,0.41, -1.08, -3.35, 2.00, 1.56, 6.99, repro,
2007-05-01,-0.17, -1.75, -5.04, 2.03, 1.57, 7.06, repro,
2007-05-02,-1.63, 0.11, -9.72, 2.13, 1.65, 7.49, repro,
2007-05-03,0.07, -1.75, -7.16, 2.14, 1.62, 7.41, repro,
2007-05-04,-0.45, -2.55, -5.88, 1.99, 1.55, 6.95, repro,
2007-05-05,0.53, -1.30, -6.65, 2.02, 1.60, 7.11, repro,
2007-05-06,-0.20, -0.94, -8.59, 2.02, 1.56, 7.04, repro,
2007-05-07,-0.78, -1.29, -12.17, 2.03, 1.56, 7.07, repro,
2007-05-08,-0.19, -0.44, -6.12, 2.02, 1.56, 7.03, repro,
2007-05-09,-0.41, -0.12, -6.84, 2.02, 1.56, 7.04, repro,
2007-05-10,-1.07, -1.45, -5.79, 2.10, 1.62, 7.36, repro,
2007-05-11,-0.53, -1.37, -12.97, 2.10, 1.63, 7.43, repro,
2007-05-12,-2.27, -2.05, -5.30, 2.01, 1.56, 7.02, repro,
2007-05-13,-0.64, -1.44, -6.74, 2.07, 1.59, 7.19, repro,
2007-05-14,0.57, -0.13, -7.41, 2.05, 1.59, 7.13, repro,
2007-05-15,0.36, -0.08, -8.94, 2.02, 1.56, 7.00, repro,
2007-05-16,-1.08, -0.98, -7.48, 2.01, 1.57, 7.02, repro,
2007-05-17,-1.99, -1.21, -4.70, 2.04, 1.60, 7.11, repro,
2007-05-18,-0.44, -1.53, -5.46, 2.09, 1.65, 7.31, repro,
2007-05-19,-1.41, -0.53, -4.85, 2.07, 1.59, 7.14, repro,
2007-05-20,0.09, -0.31, -4.21, 2.08, 1.62, 7.17, repro,
2007-05-21,1.06, -2.17, -8.09, 2.03, 1.61, 7.12, repro,
2007-05-22,-1.11, -0.90, -1.40, 2.04, 1.60, 7.09, repro,
2007-05-23,0.30, -0.91, -7.54, 2.06, 1.61, 7.17, repro,
2007-05-24,-0.87, -1.42, -4.79, 2.10, 1.64, 7.26, repro,
2007-05-25,-0.94, -0.68, -4.57, 2.02, 1.56, 6.96, repro,
2007-05-26,-0.67, -0.98, -9.68, 2.04, 1.60, 7.05, repro,
2007-05-27,-1.41, -1.60, -3.08, 2.01, 1.57, 6.96, repro,
2007-05-28,-0.24, -2.08, -4.75, 2.04, 1.57, 7.01, repro,
2007-05-29,-1.11, -0.76, -2.18, 2.04, 1.57, 7.01, repro,
2007-05-30,-0.69, -0.72, -6.55, 2.08, 1.58, 7.09, repro,
2007-05-31,-0.22, 0.07, -6.17, 2.05, 1.59, 7.04, repro,
2007-06-01,-0.98, -0.66, -5.49, 2.02, 1.57, 6.99, repro,
2007-06-02,0.01, -1.40, -5.09, 2.00, 1.57, 6.98, repro,
2007-06-03,-0.52, -0.65, -1.70, 2.03, 1.58, 7.06, repro,
2007-06-04,-0.51, -1.11, -0.15, 2.02, 1.58, 7.04, repro,
2007-06-05,-0.84, -1.36, -0.96, 2.05, 1.58, 7.09, repro,
2007-06-06,-0.48, -2.05, 0.91, 2.00, 1.57, 6.99, repro,
2007-06-07,-0.46, -1.20, -2.92, 2.00, 1.56, 6.97, repro,
2007-06-08,-0.01, -0.89, -6.23, 2.01, 1.57, 7.01, repro,
2007-06-09,-0.96, -1.19, -6.03, 2.04, 1.62, 7.16, repro,
2007-06-10,-0.02, -1.63, -4.37, 2.00, 1.57, 7.02, repro,
2007-06-11,-0.70, -1.13, -4.91, 2.05, 1.66, 7.24, repro,
2007-06-12,-0.24, -0.70, -2.61, 2.04, 1.66, 7.22, repro,
2007-06-13,-0.55, -0.45, -13.47, 2.05, 1.62, 7.10, repro,
2007-06-14,-0.05, -1.19, -15.09, 2.06, 1.63, 7.21, repro,
2007-06-15,0.44, -0.95, -6.68, 2.00, 1.59, 7.08, repro,
2007-06-16,0.70, -0.34, -6.11, 2.00, 1.57, 7.00, repro,
2007-06-17,-0.35, -1.29, -9.27, 2.01, 1.59, 7.07, repro,
2007-06-18,-0.47, -0.12, -2.64, 2.00, 1.57, 7.01, repro,
2007-06-19,-0.84, -0.14, -11.19, 2.00, 1.57, 6.99, repro,
2007-06-20,-0.90, -1.41, -11.27, 2.00, 1.58, 7.01, repro,
2007-06-21,0.72, 0.92, -10.52, 2.01, 1.57, 6.99, repro,
2007-06-22,-0.57, 0.94, -9.49, 2.00, 1.57, 6.98, repro,
2007-06-23,-1.09, -0.51, -7.98, 2.00, 1.58, 7.02, repro,
2007-06-24,-0.78, -0.30, -8.71, 2.04, 1.62, 7.25, repro,
2007-06-25,-0.25, -0.09, -10.69, 2.00, 1.56, 6.98, repro,
2007-06-26,0.01, -0.35, -12.17, 2.00, 1.57, 7.01, repro,
2007-06-27,0.28, -0.27, -9.95, 2.01, 1.57, 7.02, repro,
2007-06-28,-0.60, -0.10, -10.29, 2.02, 1.58, 7.09, repro,
2007-06-29,-1.17, 0.16, -2.92, 2.01, 1.59, 7.13, repro,
2007-06-30,0.19, 0.05, -6.75, 2.01, 1.56, 7.03, repro,
2007-07-01,0.14, -0.74, -7.47, 2.00, 1.57, 7.00, repro,
2007-07-02,0.62, -0.48, -6.06, 2.00, 1.57, 7.00, repro,
2007-07-03,-0.83, 0.26, -7.32, 2.02, 1.58, 7.09, repro,
2007-07-04,-1.44, 0.22, -8.73, 2.02, 1.59, 7.15, repro,
2007-07-05,-0.91, 0.57, -2.79, 2.00, 1.57, 7.04, repro,
2007-07-06,0.44, -0.28, -8.89, 2.00, 1.58, 7.05, repro,
2007-07-07,-1.33, 0.28, -7.91, 2.00, 1.58, 7.03, repro,
2007-07-08,-0.33, 1.42, -2.47, 2.05, 1.64, 7.20, repro,
2007-07-09,-0.71, -0.36, -3.79, 2.02, 1.59, 7.14, repro,
2007-07-10,0.56, 0.68, -5.42, 2.06, 1.64, 7.25, repro,
2007-07-11,-0.49, 0.11, -7.75, 2.00, 1.57, 7.00, repro,
2007-07-12,0.41, -0.05, -9.17, 2.01, 1.58, 7.02, repro,
2007-07-13,-0.67, 1.71, -0.18, 2.04, 1.64, 7.18, repro,
2007-07-14,-0.93, -0.96, -4.69, 2.05, 1.63, 7.23, repro,
2007-07-15,-1.60, -0.82, -11.37, 2.04, 1.65, 7.28, repro,
2007-07-16,-1.61, 0.92, 1.69, 2.01, 1.59, 7.06, repro,
2007-07-17,-0.00, -0.33, 2.99, 2.04, 1.64, 7.15, repro,
2007-07-18,-0.95, -2.98, -2.05, 2.01, 1.58, 7.05, repro,
2007-07-19,-1.39, -1.65, 0.29, 2.02, 1.58, 7.06, repro,
2007-07-20,-3.10, -1.10, 1.12, 2.04, 1.64, 7.21, repro,
2007-07-21,-0.59, -0.49, -5.73, 2.04, 1.63, 7.18, repro,
2007-07-22,-1.34, 0.10, -7.05, 2.09, 1.66, 7.37, repro,
2007-07-23,-0.29, 0.36, -1.00, 2.06, 1.65, 7.25, repro,
2007-07-24,-0.30, 0.02, -2.40, 2.06, 1.65, 7.27, repro,
2007-07-25,-0.46, 0.56, 1.66, 2.16, 1.81, 7.84, repro,
2007-07-26,-1.22, -0.15, -0.66, 2.00, 1.58, 7.02, repro,
2007-07-27,-1.27, -1.38, 4.04, 2.06, 1.66, 7.33, repro,
2007-07-28,0.40, -1.26, 2.62, 2.06, 1.67, 7.34, repro,
2007-07-29,-1.00, -0.76, 1.97, 2.07, 1.68, 7.42, repro,
2007-07-30,-0.18, 0.40, 7.72, 2.02, 1.60, 7.12, repro,
2007-07-31,-0.98, 0.26, -4.07, 2.03, 1.62, 7.16, repro,
2007-08-01,-0.78, -0.82, 2.08, 1.99, 1.57, 6.99, repro,
2007-08-02,-0.42, -0.33, -0.08, 2.12, 1.67, 7.47, repro,
2007-08-03,-0.21, -0.59, -4.92, 2.01, 1.58, 7.06, repro,
2007-08-04,-0.75, 0.27, 5.43, 2.06, 1.64, 7.33, repro,
2007-08-05,-0.46, 0.78, 1.83, 2.02, 1.59, 7.10, repro,
2007-08-06,-0.36, -0.75, 7.05, 2.02, 1.61, 7.16, repro,
2007-08-07,-0.09, 0.42, 4.17, 2.04, 1.61, 7.20, repro,
2007-08-08,0.42, 0.07, 2.06, 1.99, 1.58, 7.00, repro,
2007-08-09,-1.77, -2.53, 0.78, 2.01, 1.58, 7.02, repro,
2007-08-10,-0.78, -1.10, 5.10, 2.01, 1.59, 7.05, repro,
2007-08-11,-0.99, -1.87, -3.83, 1.99, 1.58, 6.99, repro,
2007-08-12,0.79, -6.20, -4.97, 2.01, 1.59, 7.07, repro,
2007-08-13,-1.78, -3.99, -10.13, 1.99, 1.57, 6.96, repro,
2007-08-14,0.11, -0.62, -0.33, 2.13, 1.68, 7.45, repro,
2007-08-15,0.09, -1.01, -3.14, 2.20, 1.77, 7.78, repro,
2007-08-16,-1.34, 0.11, 1.38, 2.20, 1.70, 7.74, repro,
2007-08-17,0.11, -1.38, -0.16, 2.13, 1.64, 7.45, repro,
2007-08-18,-1.73, 1.00, 1.70, 2.11, 1.68, 7.59, repro,
2007-08-19,-0.61, -0.86, -6.51, 2.11, 1.66, 7.50, repro,
2007-08-20,0.28, -0.52, -5.02, 2.15, 1.69, 7.51, repro,
2007-08-21,-0.54, 0.21, -4.77, 2.09, 1.64, 7.33, repro,
2007-08-22,2.21, -0.99, 1.77, 2.13, 1.67, 7.46, repro,
2007-08-23,2.40, -1.03, 1.76, 2.05, 1.59, 7.15, repro,
2007-08-24,0.04, -0.16, 2.74, 2.17, 1.67, 7.46, repro,
2007-08-25,1.00, -0.48, -4.71, 2.09, 1.65, 7.28, repro,
2007-08-26,0.70, 0.10, 0.70, 2.16, 1.72, 7.62, repro,
2007-08-27,-0.58, 0.33, -3.28, 2.14, 1.72, 7.61, repro,
2007-08-28,-0.53, -0.12, -1.31, 2.10, 1.66, 7.36, repro,
2007-08-29,0.94, 0.48, -10.44, 2.11, 1.67, 7.41, repro,
2007-08-30,0.83, -0.34, -9.36, 2.10, 1.66, 7.36, repro,
2007-08-31,0.94, -0.34, -5.90, 2.13, 1.66, 7.39, repro,
2007-09-01,-0.13, 0.89, 3.11, 2.12, 1.68, 7.42, repro,
2007-09-02,1.05, 0.98, -3.67, 2.28, 1.81, 8.36, repro,
2007-09-03,0.76, -1.29, -10.32, 2.31, 1.89, 8.37, repro,
2007-09-04,-0.46, 0.14, -7.97, 2.18, 1.78, 7.74, repro,
2007-09-05,0.56, -0.68, -1.77, 2.10, 1.66, 7.33, repro,
2007-09-06,-0.47, 0.11, -0.91, 2.11, 1.66, 7.32, repro,
2007-09-07,0.64, 0.17, -2.48, 2.10, 1.65, 7.32, repro,
2007-09-08,0.31, -0.60, 0.79, 2.22, 1.81, 7.94, repro,
2007-09-09,0.25, -1.14, -8.25, 2.19, 1.77, 7.75, repro,
2007-09-10,0.83, -1.22, -3.36, 2.16, 1.72, 7.57, repro,
2007-09-11,1.32, -0.90, -7.35, 2.15, 1.71, 7.54, repro,
2007-09-12,-0.13, -0.39, -0.60, 2.16, 1.69, 7.48, repro,
2007-09-13,0.87, -0.65, 0.67, 2.20, 1.67, 7.53, repro,
2007-09-14,-0.54, -1.66, -4.23, 2.13, 1.70, 7.48, repro,
2007-09-15,1.27, -0.97, 1.15, 2.21, 1.69, 7.67, repro,
2007-09-16,1.13, -0.95, -6.17, 2.22, 1.67, 7.56, repro,
2007-09-17,0.56, -2.03, 1.37, 2.20, 1.74, 7.68, repro,
2007-09-18,0.45, -1.05, -1.10, 2.10, 1.69, 7.39, repro,
2007-09-19,-0.18, -0.95, 3.54, 2.01, 1.58, 7.04, repro,
2007-09-20,2.16, -4.08, 9.08, 2.04, 1.59, 7.12, repro,
2007-09-21,2.34, -2.50, -5.61, 2.15, 1.67, 7.48, repro,
2007-09-22,0.21, -0.29, -2.43, 2.13, 1.65, 7.45, repro,
2007-09-23,-1.91, -1.43, -2.05, 2.11, 1.63, 7.32, repro,
2007-09-24,0.04, -0.63, 4.66, 2.17, 1.65, 7.46, repro,
2007-09-25,-0.87, -1.02, -9.51, 2.08, 1.63, 7.28, repro,
2007-09-26,0.65, -1.58, -3.20, 2.07, 1.61, 7.24, repro,
2007-09-27,-0.53, -0.86, -2.44, 2.11, 1.63, 7.33, repro,
2007-09-28,-1.94, -0.72, -5.51, 2.08, 1.68, 7.38, repro,
2007-09-29,-0.66, -2.14, 0.78, 2.09, 1.68, 7.42, repro,
2007-09-30,0.40, -1.36, -1.39, 2.10, 1.68, 7.41, repro,
2007-10-01,-1.80, -2.70, -3.31, 2.09, 1.68, 7.41, repro,
2007-10-02,0.54, -1.81, -5.15, 2.16, 1.73, 7.70, repro,
2007-10-03,-0.03, -1.89, 6.49, 2.09, 1.67, 7.38, repro,
2007-10-04,-0.04, -1.85, 5.63, 2.08, 1.67, 7.36, repro,
2007-10-05,-0.25, -0.72, 6.27, 2.13, 1.73, 7.70, repro,
2007-10-06,-0.32, -0.70, 0.54, 2.13, 1.68, 7.49, repro,
2007-10-07,-0.40, -0.40, -2.54, 2.17, 1.70, 7.58, repro,
2007-10-08,-0.57, -0.49, -0.15, 2.34, 1.79, 8.31, repro,
2007-10-09,0.18, 1.73, 2.26, 2.27, 1.85, 8.11, repro,
2007-10-10,-3.49, -0.83, -8.63, 2.23, 1.73, 7.84, repro,
2007-10-11,-0.12, -0.72, 1.00, 2.10, 1.68, 7.47, repro,
2007-10-12,-0.50, -0.26, 2.22, 2.14, 1.73, 7.65, repro,
2007-10-13,0.00, -1.41, 3.86, 2.05, 1.63, 7.23, repro,
2007-10-14,0.11, -0.95, -0.24, 2.05, 1.64, 7.27, repro,
2007-10-15,-0.57, -0.37, 4.68, 2.04, 1.63, 7.21, repro,
2007-10-16,0.35, 0.32, 3.65, 2.02, 1.62, 7.12, repro,
2007-10-17,-1.16, 0.12, 2.37, 2.07, 1.66, 7.37, repro,
2007-10-18,-0.62, -0.73, 2.67, 2.06, 1.64, 7.35, repro,
2007-10-19,-0.86, -1.04, 8.62, 2.03, 1.63, 7.21, repro,
2007-10-20,-0.56, -0.27, 15.57, 2.04, 1.63, 7.21, repro,
2007-10-21,-0.09, -1.25, -6.68, 2.04, 1.64, 7.26, repro,
2007-10-22,-0.03, 0.17, -8.02, 2.04, 1.63, 7.22, repro,
2007-10-23,0.41, -0.36, -11.68, 2.11, 1.68, 7.48, repro,
2007-10-24,-0.74, -0.49, -7.82, 2.14, 1.73, 7.64, repro,
2007-10-25,0.13, -0.31, -4.15, 2.04, 1.62, 7.17, repro,
2007-10-26,-0.33, 0.62, -6.30, 2.06, 1.67, 7.31, repro,
2007-10-27,-0.33, 0.21, -6.33, 2.04, 1.63, 7.22, repro,
2007-10-28,0.16, 0.55, -10.36, 2.06, 1.63, 7.26, repro,
2007-10-29,-0.87, 0.07, -8.55, 2.05, 1.63, 7.29, repro,
2007-10-30,-1.46, -0.61, -3.92, 2.04, 1.62, 7.21, repro,
2007-10-31,0.18, -0.07, -6.65, 2.03, 1.62, 7.17, repro,
2007-11-01,-0.50, -0.32, -7.12, 2.00, 1.59, 7.05, repro,
2007-11-02,0.34, 0.05, -4.74, 2.02, 1.61, 7.11, repro,
2007-11-03,-0.11, -0.34, -7.86, 2.03, 1.60, 7.15, repro,
2007-11-04,-0.17, -0.95, -5.32, 2.02, 1.59, 7.05, repro,
2007-11-05,-0.67, -0.24, -6.66, 2.01, 1.58, 7.04, repro,
2007-11-06,-0.22, -0.21, -10.29, 2.05, 1.69, 7.40, repro,
2007-11-07,-0.04, 0.19, -9.80, 2.01, 1.59, 7.02, repro,
2007-11-08,-0.77, 0.10, -6.22, 2.07, 1.63, 7.25, repro,
2007-11-09,-0.88, -1.40, -9.85, 2.06, 1.63, 7.22, repro,
2007-11-10,0.11, -1.25, -5.78, 2.01, 1.59, 7.04, repro,
2007-11-11,-0.14, -2.23, -4.04, 2.00, 1.58, 7.02, repro,
2007-11-12,-0.33, -0.55, -7.75, 1.99, 1.58, 7.00, repro,
2007-11-13,-0.55, -1.51, -4.06, 2.02, 1.60, 7.10, repro,
2007-11-14,0.73, -1.51, -7.14, 2.04, 1.61, 7.17, repro,
2007-11-15,0.76, -1.23, -5.14, 2.05, 1.62, 7.19, repro,
2007-11-16,0.51, -1.67, -7.39, 2.03, 1.60, 7.14, repro,
2007-11-17,1.13, -1.26, -4.07, 2.01, 1.58, 7.02, repro,
2007-11-18,0.37, -0.98, -6.19, 2.01, 1.59, 7.09, repro,
2007-11-19,-0.10, -2.18, -3.88, 2.03, 1.60, 7.12, repro,
2007-11-20,-0.03, -0.46, -7.84, 2.11, 1.71, 7.40, repro,
2007-11-21,1.25, -1.64, -8.19, 2.08, 1.70, 7.36, repro,